Temperature
29 25 25 25 26 27 27 27 27 27 28 27 26 25 25 25 25 24 24 24 24 23 23 23 23 22 22 22 21 21 21 20 20 20 20 19 19 19 19 19 19 19 18 18
26 26 27 27 28 28 27 27 27 27 28 27 26 25 25 25 25 25 24 24 24 23 23 23 23 22 22 22 21 21 21 20 20 20 20 19 19 19 19 19 19 19 18 18
26 27 28 28 28 28 27 27 27 27 28 27 26 25 25 25 25 25 25 25 24 24 23 23 23 22 22 22 22 21 21 21 20 20 20 19 19 19 19 19 19 18 18 18
27 28 29 28 28 28 27 28 28 28 26 25 25 23 24 24 24 25 25 25 24 24 24 23 23 23 22 22 22 22 21 21 20 20 19 19 19 19 19 19 18 18 18 18
27 29 28 28 29 29 28 29 28 28 25 24 25 23 23 23 23 24 24 25 24 24 24 24 23 23 23 22 22 22 21 21 20 20 20 19 19 19 19 18 18 18 18 18
27 29 29 29 30 30 29 27 26 24 23 24 25 24 24 23 24 24 24 25 25 24 24 24 23 23 23 22 22 21 21 21 20 20 19 19 19 19 19 19 19 18 18 18
27 28 29 30 29 29 27 24 23 23 22 23 24 24 23 25 25 25 25 25 25 25 24 24 23 23 23 22 22 21 21 21 20 20 20 19 19 19 19 19 19 18 18 18
25 25 28 29 29 28 27 24 23 23 23 23 24 24 24 26 26 27 26 26 25 25 24 24 24 23 23 22 22 22 21 21 20 20 20 19 19 19 19 19 18 18 18 18
24 25 28 29 30 29 28 25 23 22 23 23 23 24 25 25 25 25 25 25 24 24 24 24 24 24 23 23 22 22 22 21 21 20 20 19 19 19 19 18 18 18 18 18
25 25 27 29 29 29 27 25 22 22 22 23 24 24 23 24 24 24 24 24 24 24 24 24 24 24 23 23 23 22 22 21 21 20 20 19 19 19 19 18 18 18 18 18
24 24 25 27 27 27 28 26 22 20 21 22 23 23 25 24 24 24 24 24 24 24 24 24 24 24 23 23 22 22 21 21 21 20 20 19 19 19 19 19 18 18 18 18
23 21 22 25 26 27 27 26 22 22 22 20 21 23 25 24 24 24 24 25 25 24 24 24 24 24 23 23 22 22 21 21 21 20 20 20 19 19 19 19 18 18 18 18
23 21 22 23 24 25 27 26 24 21 20 20 22 23 25 24 24 24 24 25 24 24 24 24 24 24 23 23 22 22 22 21 21 20 20 20 19 19 19 19 19 18 18 18
23 20 21 22 23 24 25 26 25 22 21 21 22 23 24 24 23 23 24 24 24 24 24 24 24 24 23 23 22 22 22 21 21 20 20 20 20 19 19 19 19 18 18 18
20 20 22 22 24 25 26 26 26 24 23 22 23 23 24 23 23 24 24 24 23 23 23 23 23 23 23 23 22 22 22 21 21 20 20 20 20 19 19 19 19 18 18 18
18 20 21 22 24 25 25 25 26 25 25 24 24 23 23 24 24 24 24 23 23 23 23 23 23 23 23 23 22 22 22 21 21 20 20 20 20 19 19 19 19 18 18 18
18 19 19 20 22 23 23 24 25 25 24 24 23 23 22 22 22 22 23 23 23 23 23 22 22 22 22 23 22 22 22 21 21 20 20 20 20 19 19 19 18 18 18 17
18 17 16 18 21 22 22 23 25 25 24 23 23 22 22 22 23 23 23 23 22 22 22 22 22 22 22 22 22 22 21 21 20 20 20 20 19 19 19 19 18 18 17 17
17 17 17 17 19 20 22 23 24 23 23 23 22 22 22 23 22 22 23 23 23 23 22 22 22 22 22 22 22 21 21 20 20 20 20 20 19 19 19 18 18 18 17 17
17 16 16 17 19 20 21 23 24 23 21 22 21 21 21 21 19 20 23 23 23 22 22 22 22 22 21 21 21 21 21 20 20 20 20 20 19 19 19 18 18 17 17 17
18 17 17 17 18 19 20 22 23 21 20 22 22 22 21 21 21 22 23 23 23 22 22 22 22 21 21 21 21 21 20 20 20 20 19 19 19 18 18 18 18 17 17 17
17 16 16 16 17 18 20 21 20 19 21 22 22 22 22 22 22 22 22 22 22 22 22 21 21 21 21 20 20 20 20 20 20 19 19 19 18 18 18 17 17 17 17 16
16 16 15 16 17 19 21 21 22 22 22 22 22 22 22 21 21 21 21 21 21 21 21 21 21 20 20 20 20 20 20 19 19 19 19 18 18 18 17 17 17 17 16 16
16 17 16 16 17 19 21 21 22 22 22 22 22 21 22 21 21 21 21 21 21 21 20 20 20 20 19 19 19 19 19 19 19 18 18 18 18 17 17 17 17 17 16 16
16 16 15 16 17 18 20 21 21 21 21 21 21 21 21 21 20 20 20 20 20 20 20 19 19 19 19 19 19 19 19 18 18 18 18 17 17 17 17 17 16 16 16 16
15 15 15 15 16 16 18 20 20 20 20 20 20 20 20 21 20 20 20 20 19 19 19 19 19 19 18 18 18 18 18 18 18 18 17 17 17 17 16 16 16 16 15 15
Wind_Speed
2 4 3 7 7 6 4 3 3 5 6 6 8 9 13 13 12 12 11 11 10 10 9 10 10 10 9 8 7 7 6 5 4 3 3 2 1 1 1 1 2 3 3 4
4 3 9 7 4 3 2 2 3 2 5 5 6 7 11 13 15 15 14 13 12 10 8 9 9 10 9 8 7 7 6 6 5 4 3 3 3 2 2 1 2 3 3 4
7 7 5 4 3 2 3 5 5 4 1 4 6 2 7 8 9 10 11 12 12 14 14 12 11 10 9 9 8 8 7 6 5 5 3 3 2 2 2 1 1 1 2 3
5 5 4 5 6 6 5 5 7 7 6 2 5 3 6 8 8 10 11 10 12 13 12 12 11 10 10 9 8 7 7 6 5 5 4 5 4 3 2 2 1 0 1 2
5 4 6 6 7 7 6 4 5 5 5 2 1 4 6 6 9 12 12 13 14 13 14 13 12 11 10 9 8 7 7 6 5 5 5 5 3 3 2 2 1 0 0 1
7 4 5 7 5 5 4 5 6 5 5 1 4 5 5 7 13 13 12 12 13 14 14 12 10 9 8 8 8 7 7 6 5 5 5 5 5 4 4 3 2 1 0 1
5 5 3 2 1 1 6 7 4 4 3 5 4 3 7 8 10 14 15 15 14 13 13 13 12 10 9 9 9 8 8 6 6 5 4 4 5 4 4 4 3 2 1 0
3 6 5 3 6 6 5 11 8 6 5 4 3 3 7 6 8 10 11 12 13 13 13 13 13 12 11 11 10 9 9 7 6 6 5 4 4 3 3 3 3 2 2 2
6 7 5 4 4 8 5 4 9 8 3 1 4 4 6 3 5 8 10 11 12 12 12 13 12 12 12 11 11 11 10 8 7 6 5 4 3 3 3 2 2 2 1 1
6 4 6 3 2 1 7 8 7 6 5 2 4 3 4 4 5 7 10 12 12 11 10 10 11 11 11 10 10 10 9 9 7 6 6 5 4 4 3 3 2 1 1 1
4 4 5 2 2 4 2 4 6 5 6 6 3 6 6 9 8 8 9 11 12 11 11 10 10 10 10 9 9 9 9 8 7 7 6 5 4 4 3 3 2 2 2 2
3 5 3 6 5 4 5 6 7 6 3 5 5 6 5 7 7 9 10 9 9 9 9 10 10 10 10 10 9 9 9 9 8 8 7 6 5 4 4 3 2 2 2 2
3 6 1 6 7 5 1 2 5 6 5 5 5 5 3 3 4 6 9 8 7 7 7 8 9 10 11 10 10 10 10 10 9 8 8 6 6 5 4 3 2 2 2 2
5 5 6 8 8 4 2 2 2 6 4 5 7 6 2 4 6 6 8 8 7 7 8 8 8 8 9 9 10 10 10 9 10 9 9 8 7 6 5 4 3 3 3 3
6 4 2 4 5 2 2 4 2 2 7 7 7 7 7 9 11 10 9 9 8 7 7 8 8 8 8 9 9 9 10 9 10 10 9 9 7 6 5 5 4 3 3 4
4 4 2 2 2 2 2 3 3 2 3 4 5 4 5 6 7 7 8 9 9 8 8 7 8 8 8 10 10 10 10 10 10 10 10 9 8 7 6 6 5 4 3 3
2 4 3 2 4 4 4 5 3 3 3 6 6 7 3 6 7 9 10 10 9 9 8 8 8 8 8 9 10 11 11 9 9 10 10 9 9 8 7 7 6 5 4 4
5 4 3 1 3 4 8 5 3 3 1 3 4 4 7 9 8 7 8 9 8 8 7 7 7 7 7 7 7 8 8 9 9 9 9 9 9 8 7 7 6 5 4 4
7 7 4 3 2 5 7 4 1 3 2 1 4 4 6 7 6 2 3 6 8 8 8 6 6 6 5 6 7 8 7 8 8 8 9 9 9 8 8 8 7 6 5 4
5 7 6 4 4 6 7 7 3 5 1 3 3 4 5 6 4 4 4 5 5 5 5 5 5 5 5 5 6 8 9 8 8 9 9 8 9 9 9 9 7 5 5 5
3 4 4 4 4 6 7 7 4 4 5 3 2 3 4 4 6 6 6 5 5 5 5 6 6 6 6 6 7 7 7 8 7 6 7 7 8 8 8 7 6 6 6 5
6 5 4 5 4 7 5 3 3 6 4 2 2 3 3 2 2 3 5 5 6 5 4 5 5 5 4 5 6 6 6 6 5 6 6 6 7 7 7 7 6 6 7 6
4 7 7 7 7 6 2 3 3 3 2 2 2 2 5 4 2 3 4 4 5 5 5 4 5 5 4 5 6 6 5 4 5 6 7 7 7 6 6 7 8 7 7 6
4 1 3 2 3 3 1 2 2 1 2 1 3 3 4 4 3 3 3 3 4 5 4 4 5 5 4 4 5 5 5 5 6 7 6 6 7 6 5 5 6 6 7 7
3 2 1 1 3 2 2 0 1 2 3 3 2 1 2 4 4 3 3 4 5 5 5 4 5 5 5 4 4 4 5 6 6 7 6 6 6 7 5 4 3 4 4 6
2 3 3 5 5 3 4 3 1 1 0 1 2 1 1 3 3 2 3 3 4 5 4 4 4 4 4 4 4 4 5 6 6 5 6 5 5 5 5 5 3 4 2 4
Wind_Direction
347 90 194 213 195 182 170 173 214 215 191 154 160 170 176 184 180 178 176 174 176 180 176 164 160 157 152 151 150 150 148 154 145 134 137 134 151 159 142 126 136 134 134 129
27 251 222 203 197 180 181 195 231 214 168 147 163 184 185 185 189 184 180 180 179 174 170 166 163 162 163 163 160 157 158 158 158 157 155 152 155 165 147 110 108 137 139 139
202 232 203 187 200 207 246 182 190 171 145 87 111 161 205 197 195 190 186 182 177 175 175 173 168 169 168 168 169 169 165 162 165 156 131 111 84 65 67 74 86 177 157 145
238 236 197 191 198 183 247 217 176 154 131 191 147 183 241 201 194 196 194 189 184 183 176 173 169 170 174 177 172 164 162 162 163 153 141 142 145 147 167 159 170 209 116 124
251 205 183 200 206 181 209 196 164 163 145 110 132 146 256 189 196 206 198 194 187 178 174 173 172 172 173 170 166 162 158 158 157 152 151 145 146 155 145 128 130 144 35 75
242 244 193 204 216 184 146 75 53 57 80 112 223 160 240 205 201 198 196 191 183 174 170 168 165 157 158 159 157 153 149 154 154 153 148 150 156 156 138 135 168 190 240 319
301 291 259 176 137 325 108 98 51 12 9 252 244 170 233 222 195 186 184 186 181 173 169 167 165 162 162 161 161 158 155 155 155 151 149 153 162 160 160 165 175 173 180 227
210 277 259 203 173 180 169 140 156 179 208 271 322 231 254 215 183 172 167 169 170 172 173 174 175 170 169 167 165 163 162 160 160 159 162 155 151 148 149 154 161 175 192 208
183 247 272 221 185 151 148 154 163 139 153 125 295 296 327 85 133 147 151 154 167 176 177 177 176 173 172 170 171 169 166 162 165 165 160 154 155 150 149 145 142 168 195 166
166 233 277 269 47 55 154 148 97 112 142 199 299 282 232 203 174 160 163 164 171 171 173 173 175 175 175 173 170 165 164 165 165 166 165 163 162 157 151 143 139 136 157 135
143 177 289 347 164 201 117 105 110 120 146 150 204 267 228 197 181 173 176 172 169 169 170 171 173 172 169 163 160 163 163 159 161 163 160 157 155 155 148 149 154 148 130 129
150 132 234 257 254 187 152 160 144 147 193 158 160 262 263 192 183 169 168 165 163 165 168 169 169 164 161 164 165 167 168 166 168 164 158 158 151 146 146 153 156 142 135 126
130 113 93 326 328 355 81 147 149 137 129 147 158 251 287 152 143 152 155 159 154 157 158 161 164 164 165 169 171 170 170 171 166 160 160 159 156 156 163 166 157 150 145 130
110 111 159 193 218 234 288 303 128 120 143 180 195 208 239 161 158 160 156 159 160 158 153 152 154 162 168 172 173 170 171 170 166 164 165 169 171 171 173 168 160 156 150 137
91 114 173 212 222 193 267 285 264 173 181 178 207 198 208 187 174 171 161 152 149 152 151 155 159 163 167 168 170 171 171 170 169 167 170 177 176 170 165 162 161 153 148 147
69 105 69 344 331 11 322 297 257 227 186 175 174 222 221 171 145 148 152 150 151 159 158 160 161 163 172 173 173 173 173 174 170 171 176 176 170 169 169 167 161 151 142 136
63 93 82 288 320 26 279 236 211 208 204 170 192 225 172 126 144 168 164 159 164 167 163 160 166 173 180 180 176 179 176 169 169 173 177 176 174 174 177 172 160 160 157 146
134 103 120 128 41 225 245 248 181 158 201 183 169 168 152 158 168 163 157 156 159 158 160 167 169 177 189 179 163 162 165 166 171 175 178 178 175 175 170 164 166 170 165 164
148 136 124 125 175 271 295 305 167 149 282 301 144 140 139 133 103 89 174 163 165 163 162 168 169 166 168 164 159 156 163 164 169 180 180 177 173 171 169 172 176 180 173 172
105 115 124 135 161 225 256 293 311 106 296 319 108 140 138 112 122 222 217 176 158 152 146 141 135 126 145 173 166 166 169 171 179 187 186 177 172 171 175 178 180 181 173 177
89 89 138 161 198 251 262 298 36 123 224 272 131 127 129 160 198 205 181 165 146 138 142 135 137 149 166 171 164 163 172 185 189 180 173 174 174 176 175 176 177 169 166 162
164 156 173 159 194 246 283 38 139 204 224 203 150 145 136 121 115 144 144 147 140 133 132 137 142 158 167 159 157 164 181 187 170 163 171 180 178 179 177 171 171 169 165 162
176 181 179 182 207 231 238 168 195 166 148 161 148 149 126 113 107 133 131 140 146 146 150 151 150 156 165 163 160 172 186 166 166 170 181 186 181 179 174 173 173 171 170 171
316 30 129 156 241 233 214 100 65 109 131 150 139 136 124 126 139 135 137 148 158 161 161 156 147 153 170 173 172 178 176 164 167 182 187 182 175 171 165 168 174 175 179 179
278 6 59 219 256 326 325 89 112 63 63 75 85 107 157 146 154 163 170 176 181 172 169 167 166 169 180 180 182 178 172 164 171 178 178 173 172 167 160 155 164 183 193 190
252 188 183 226 234 201 242 244 171 107 324 148 107 352 279 182 179 182 190 196 183 177 171 171 172 170 179 180 186 184 176 172 173 178 174 169 166 164 160 152 125 65 125 162
Height
1491 1498 1505 1502 1501 1503 1506 1513 1517 1512 1505 1509 1516 1519 1519 1520 1522 1523 1525 1526 1528 1530 1532 1533 1535 1536 1537 1538 1539 1540 1541 1542 1542 1543 1544 1544 1545 1545 1545 1546 1546 1546 1546 1546
1498 1502 1494 1492 1494 1498 1504 1512 1515 1509 1503 1507 1516 1518 1516 1518 1518 1519 1521 1523 1525 1528 1531 1532 1534 1535 1536 1537 1538 1539 1540 1541 1542 1543 1544 1544 1544 1545 1545 1545 1546 1546 1546 1546
1500 1494 1488 1492 1497 1502 1505 1511 1511 1512 1507 1508 1517 1526 1521 1518 1519 1520 1521 1522 1524 1525 1528 1530 1532 1533 1535 1536 1537 1538 1540 1541 1542 1543 1543 1544 1544 1544 1545 1545 1545 1545 1546 1545
1493 1487 1488 1493 1497 1498 1509 1497 1500 1506 1518 1527 1523 1544 1527 1520 1519 1519 1520 1521 1522 1524 1525 1528 1530 1532 1533 1535 1537 1538 1539 1540 1541 1542 1542 1543 1543 1543 1544 1544 1544 1544 1545 1544
1492 1485 1488 1493 1491 1491 1497 1491 1497 1504 1516 1527 1525 1538 1532 1520 1522 1518 1517 1518 1518 1521 1523 1525 1528 1530 1532 1534 1536 1537 1539 1539 1540 1541 1542 1542 1542 1543 1543 1543 1543 1543 1544 1543
1485 1481 1482 1484 1482 1484 1487 1496 1505 1514 1524 1540 1527 1534 1534 1520 1513 1511 1513 1515 1517 1519 1521 1524 1527 1529 1531 1533 1535 1537 1538 1539 1540 1541 1541 1542 1542 1542 1543 1543 1543 1543 1543 1543
1491 1483 1479 1479 1486 1487 1491 1515 1538 1544 1550 1544 1523 1527 1526 1505 1501 1503 1506 1510 1514 1517 1520 1522 1525 1527 1530 1532 1533 1535 1537 1538 1539 1540 1540 1541 1541 1542 1542 1542 1542 1542 1542 1542
1505 1503 1483 1478 1483 1491 1494 1509 1537 1551 1553 1543 1525 1527 1513 1495 1497 1500 1503 1507 1511 1515 1517 1519 1522 1525 1527 1530 1532 1534 1535 1537 1538 1539 1539 1540 1541 1541 1541 1541 1541 1541 1541 1541
1503 1501 1478 1475 1475 1481 1493 1504 1507 1528 1536 1543 1535 1520 1506 1496 1498 1500 1503 1506 1509 1512 1515 1517 1520 1523 1525 1528 1530 1532 1534 1536 1537 1538 1539 1540 1540 1540 1540 1541 1541 1540 1540 1540
1488 1497 1483 1474 1474 1477 1482 1492 1513 1529 1546 1551 1538 1529 1522 1506 1503 1500 1501 1504 1506 1509 1512 1515 1518 1521 1524 1526 1528 1530 1533 1534 1536 1537 1538 1539 1539 1540 1540 1540 1540 1539 1539 1539
1483 1496 1491 1483 1485 1488 1487 1495 1509 1525 1530 1546 1550 1535 1501 1499 1497 1498 1499 1501 1503 1506 1509 1513 1516 1518 1522 1524 1527 1529 1531 1533 1535 1536 1537 1538 1538 1539 1539 1539 1539 1539 1538 1538
1482 1496 1503 1491 1479 1475 1481 1490 1504 1523 1529 1532 1539 1530 1491 1493 1493 1494 1496 1498 1502 1505 1508 1511 1514 1516 1519 1522 1525 1527 1530 1531 1533 1535 1536 1537 1538 1538 1538 1538 1538 1538 1538 1538
1480 1497 1512 1508 1498 1486 1485 1486 1494 1506 1520 1530 1535 1524 1492 1492 1493 1494 1496 1498 1501 1504 1506 1509 1511 1514 1517 1520 1523 1525 1527 1529 1531 1533 1534 1535 1536 1537 1537 1537 1538 1538 1538 1537
1476 1494 1506 1513 1507 1495 1491 1488 1490 1503 1520 1523 1519 1511 1499 1495 1495 1496 1497 1499 1502 1503 1505 1508 1511 1513 1516 1518 1520 1523 1525 1527 1529 1531 1532 1533 1534 1535 1536 1536 1537 1537 1537 1537
1478 1494 1493 1492 1487 1485 1487 1487 1487 1494 1501 1509 1506 1503 1496 1492 1492 1494 1497 1499 1502 1503 1505 1507 1509 1512 1514 1516 1518 1520 1523 1525 1526 1528 1530 1531 1532 1533 1534 1535 1535 1535 1536 1536
1481 1491 1492 1493 1485 1484 1487 1484 1485 1487 1489 1494 1495 1496 1488 1488 1491 1494 1496 1498 1500 1502 1503 1505 1507 1510 1512 1513 1515 1518 1520 1522 1524 1526 1527 1529 1530 1531 1532 1533 1533 1534 1534 1535
1487 1493 1502 1505 1492 1489 1498 1486 1484 1486 1484 1487 1495 1492 1486 1489 1491 1492 1494 1496 1497 1499 1501 1503 1505 1507 1509 1511 1513 1515 1517 1519 1521 1523 1525 1526 1528 1529 1530 1531 1532 1532 1533 1533
1486 1495 1505 1508 1503 1512 1495 1477 1477 1480 1481 1481 1482 1483 1483 1484 1486 1489 1491 1493 1495 1497 1499 1501 1503 1505 1508 1509 1510 1513 1515 1517 1519 1520 1522 1523 1525 1526 1528 1529 1529 1530 1531 1531
1478 1491 1504 1513 1513 1505 1487 1477 1477 1482 1485 1480 1481 1482 1482 1483 1486 1490 1491 1492 1493 1494 1496 1499 1501 1502 1505 1506 1508 1510 1512 1514 1516 1517 1519 1520 1522 1523 1525 1526 1527 1528 1529 1529
1478 1485 1500 1509 1511 1512 1493 1476 1473 1477 1490 1481 1479 1480 1481 1482 1492 1491 1489 1490 1492 1494 1495 1497 1498 1500 1502 1504 1506 1508 1509 1511 1512 1513 1515 1517 1519 1520 1522 1523 1524 1525 1526 1527
1489 1493 1500 1506 1508 1499 1482 1475 1473 1493 1493 1480 1479 1480 1480 1482 1484 1484 1485 1487 1489 1491 1493 1495 1496 1497 1499 1501 1502 1504 1506 1507 1508 1510 1511 1513 1515 1517 1519 1521 1522 1523 1524 1525
1490 1497 1501 1504 1508 1502 1477 1475 1481 1483 1478 1479 1478 1478 1479 1479 1480 1481 1482 1484 1486 1488 1491 1492 1494 1495 1497 1499 1499 1500 1502 1504 1505 1507 1508 1510 1512 1514 1516 1517 1519 1520 1521 1522
1483 1484 1488 1491 1492 1480 1476 1476 1476 1477 1478 1478 1478 1478 1477 1478 1479 1480 1481 1483 1485 1486 1488 1490 1491 1493 1495 1496 1497 1498 1499 1501 1502 1504 1506 1508 1510 1511 1513 1514 1515 1517 1518 1519
1478 1475 1479 1483 1480 1476 1475 1475 1476 1476 1477 1477 1477 1477 1477 1477 1478 1479 1480 1481 1483 1484 1486 1487 1488 1489 1491 1492 1494 1495 1497 1498 1499 1501 1502 1504 1506 1508 1509 1511 1512 1514 1515 1516
1479 1477 1480 1481 1477 1476 1474 1475 1475 1476 1475 1476 1476 1477 1477 1477 1477 1478 1478 1479 1480 1481 1482 1484 1485 1486 1487 1489 1491 1492 1494 1495 1496 1497 1498 1500 1502 1504 1505 1507 1509 1510 1512 1513
1477 1478 1481 1481 1476 1476 1474 1474 1474 1474 1474 1474 1474 1475 1476 1476 1476 1476 1476 1477 1477 1477 1479 1480 1482 1483 1485 1486 1487 1489 1490 1492 1492 1493 1495 1496 1498 1499 1501 1502 1504 1507 1509 1510